Regional Weather Roundup
Issued by NWS Jackson, KY

Home | Current Version | Previous Version | Text Only | Print | Product List | Glossary On
Versions: 1 2 3 4 5 6 7 8 9 10 11 12 13 14 15 16 17 18 19 20 21 22 23 24 25 26 27 28 29 30 31 32 33 34 35 36 37 38 39 40 41 42 43 44 45 46 47 48 49 50
000
ASUS43 KJKL 040810
RWRJKL

EAST KENTUCKY HOURLY WEATHER ROUNDUP
NATIONAL WEATHER SERVICE JACKSON KY
400 AM EDT MON MAY 04 2015

NOTE: "FAIR" INDICATES FEW OR NO CLOUDS BELOW 12,000 FEET WITH
NO SIGNIFICANT WEATHER AND/OR OBSTRUCTIONS TO VISIBILITY.

* THESE REPORTS ARE NOT UNDER NWS QUALITY CONTROL AND MAY NOT
  REPORT WEATHER SUCH AS PRECIPITATION AND FOG.

KYZ079-080-083-085-087-088-110-112-115-119-120-040900
...EASTERN KENTUCKY...

CITY           SKY/WX    TMP DP  RH WIND       PRES   REMARKS
JACKSON        CLEAR     58  45  62 CALM      30.17R
LONDON         CLEAR     54  48  80 CALM      30.17R
SOMERSET*      CLEAR     52  50  93 CALM      30.17S
MONTICELLO*    CLEAR     50  49  96 CALM      30.19S
MIDDLESBORO*   CLEAR     48  47  97 CALM      30.21R
HARLAN APT*    SUNNY     48  46  93 CALM      30.21R
HAZARD APT*    SUNNY     55  46  71 CALM      30.17R
BLACK MTN*       N/A     55  43  62 S7          N/A
PIKEVILLE APT* CLEAR     59  45  58 S5        30.18R
BIG SANDY*     SUNNY     57  46  66 CALM      30.17R
MOREHEAD APT*  SUNNY     55  46  71 S5        30.17R
$$

KYZ035-036-041-042-044-050-067-078-099-040900
...CENTRAL KENTUCKY...

CITY           SKY/WX    TMP DP  RH WIND       PRES   REMARKS
MT STERLING*   CLEAR     54  46  76 SW6       30.17R
FLEMING/MASON* CLEAR     57  46  67 S7        30.16R
DANVILLE*      CLEAR     52  48  87 CALM      30.16S
RICHMOND*      CLEAR     61  46  59 S6        30.15R
LEXINGTON      CLEAR     58  48  69 S6        30.15R
FRANKFORT      PTCLDY    54  48  80 CALM      30.13R
$$

KYZ091>093-OHZ055-061-077-WVZ005-015-034-035-042-040900
...SOUTHERN OHIO/WEST VIRGINIA...

CITY           SKY/WX    TMP DP  RH WIND       PRES   REMARKS
COVINGTON      PTCLDY    58  48  69 S6        30.11S
COLUMBUS       CLEAR     53  48  83 CALM      30.11S
DAYTON         CLEAR     62  47  57 S8        30.10S
WILMINGTON     CLEAR     56  45  66 S3        30.12S
HUNTINGTON     CLEAR     50  46  86 E5        30.14R
CHARLESTON     CLEAR     49  44  83 CALM      30.16R
PINEVILLE*     CLEAR     45  44  97 MISG      30.25S
BECKLEY        CLEAR     52  42  69 CALM      30.22R
BLUEFIELD      PTCLDY    60  43  53 SW5       30.24R
$$

VAZ002-007-008-TNZ017-027-036-066-071-040900
...SOUTHWEST VIRGINIA/EAST TENNESSEE...

CITY           SKY/WX    TMP DP  RH WIND       PRES   REMARKS
WISE*          CLEAR     55  37  50 SW5       30.24R
JONESVILLE*    SUNNY     46  45  93 CALM      30.23R
ABINGDON*      PTCLDY    53  46  76 E3        30.23R
BRISTOL        MOCLDY    54  49  83 CALM      30.21R
KNOXVILLE      PTCLDY    54  49  83 CALM      30.18R
OAK RIDGE      CLEAR     53  50  89 CALM      30.20R
CROSSVILLE     CLEAR     55  45  68 CALM      30.20R
NASHVILLE      CLEAR     57  50  77 S5        30.14R
$$

...KEY TO REMARKS...
VSB - VISIBILITY IN MILES
WCI - WIND CHILL INDEX
HX  - HEAT INDEX

$$


USA.gov is the U.S. government's official web portal to all federal, state and local government web resources and services.